Location: Chmeln�
(49.6483°N, 14.9871°E)
Time: 02:44:28
(UTC+00:00)

Lacrosse 4 Rocket - Pass Details

Date: 18 September 2020
Orbit: 543 x 615 km, 68.0° (Epoch: 24 October)

Event Time Altitude Azimuth Distance (km) Brightness Sun altitude
Rises 20:58:47 0° 326° (NW) 2,717 6.0 -33.3°
Reaches altitude 10° 21:00:59 10° 327° (NNW) 1,823 4.8 -33.5°
Enters shadow 21:02:05 18° 328° (NNW) 1,381 4.0 -33.6°
